Location: Newark
(35.8967°N, 14.4625°E)
Time: 22:15:03
(UTC+00:00)

N. Korean satellite - Pass Details

Date: 27 March 2019
Orbit: 457 x 508 km, 97.2° (Epoch: 22 April)

Event Time Altitude Azimuth Distance (km) Brightness Sun altitude
Rises 04:10:44 0° 34° (NE) 2,547 11.0 -10.0°
Reaches altitude 10° 04:13:39 10° 61° (ENE) 1,674 10.6 -9.4°
Maximum altitude 04:15:35 14° 94° (E) 1,449 10.3 -9.0°
Drops below altitude 10° 04:17:32 10° 126° (SE) 1,682 10.0 -8.7°
Sets 04:20:27 0° 153° (SSE) 2,569 10.5 -8.1°
